STARLINK-31745, 60329

Orbit data source: Space-Track

STARLINK-31745, 60329 is a payload satellite owned by SpaceX/Seattle (US) in LEO that was launched on Fri, 02 Aug 2024 UTC via an FALCON 9 launch vehicle from the Air Force Eastern Test Range (AFETR). Payload-class satellites include a variety of spacecraft equipped with specific instruments for various scientific and technological missions. These include communications satellites like Starlink; space stations such as the ISS; scientific satellites like the Hubble; Earth observation satellites from companies like Planet Labs, Umbra, and HawkEye 360; GPS; miniature CubeSats for education and research; and military/defense satellites.

Loading next visibility...
Identifier
60329, 2024-136A
Orbit
LEO
Last TLE update
11 hours ago
Origin
Manufacturer
SpaceX/Seattle
Mission
Operational Commercial Communications
Bus & Motor
STARLINK V2M, Unknown motor
Mass
730 kg wet, ~700 kg dry
Launch date (UTC)
2024-08-02 (11 months ago)
Launch vehicle
FALCON 9
Launch site
Air Force Eastern Test Range (AFETR)
Object type
Payload
Rocket body
Debris
Shape & HBR
Box + 2 Pan, 29 m
Radar Cross Section
33.884 m², Large (>1 m²)

Expand to show TLE details & history

TLE from 11 hours ago
0 STARLINK-31745
1 60329U 24136A   25169.84120281 -.00000281  00000-0  26421-5 0  9997
2 60329  53.1591 221.5416 0001025  80.7387 279.3730 15.30195730 50479
Epoch: 2025-06-18T20:11Z
TLE epoch observation values (Epoch: 2025-06-18T20:11:19.922Z)
Latitude
-0.00001°
Longitude
11.39113°
Altitude
476.013 km
Speed
7.629 km/s
True Right ascension
14h 46m 09s
True Declination
0° 00' 00"
Sunlit
Object was in full shadow at epoch
Visualization orbit readout
Latitude
38.07277°
Longitude
44.93123°
Altitude
477.819 km
Speed
7.632 km/s
Apparent Right ascension
12h 44m 39s
Apparent Declination
4° 32' 00"
Sunlit
Object is in full shadow
Visualization observer readout
Local Sidereal Time
18:13:25
Azimuth
268.476° W
Elevation
8.893°
Doppler factor
1
Orbital elements
Apogee altitude
476.187 km
Perigee altitude
474.782 km
Semi-major axis
6,853.621 km
Eccentricity
0.0001
Inclination
53.1591°
RAAN
221.5416°
Arg. of periapsis
80.7387°
True anomaly
Unknown
Mean anomaly
279.373°
Eccentric anomaly
Unknown
Mean motion
3.82528 °/min
Orbital period
94.11 mins
BSTAR
0.0000026421
Loading maneuver chart data...
Loading SW <> Apogee altitude chart data...
Loading historical data...
Loading historical data...
Loading historical data...
Loading historical data...
Loading historical data...
Loading historical data...
Loading historical data...

STARLINK-31745 Visibility forecast

Observer location: undefined°, undefined°

Span
Click to sort rows by Start time (UTC) header in descending order
Start Az.
Max El. time (UTC)
Max El. Az.
Max El.
End time (UTC)
End Az.
5 mins2025-06-19 07:23:47.613Z277.293° WNW2025-06-19 07:25:47.613Z317.044° NNW24.343°2025-06-19 07:28:47.613Z25.625° NE
5 mins2025-06-19 12:20:47.613Z331.349° NNW2025-06-19 12:22:47.613Z16.886° NNE30.775°2025-06-19 12:25:47.613Z96.719° ESE
4 mins2025-06-19 13:59:47.613Z260.014° W2025-06-19 14:00:47.613Z233.976° WSW23.639°2025-06-19 14:03:47.613Z173.695° S
5 mins2025-06-20 05:16:47.613Z186.445° SSW2025-06-20 05:18:47.613Z132.999° SE29.454°2025-06-20 05:21:47.613Z68.99° E
5 mins2025-06-20 06:54:47.613Z279.984° WNW2025-06-20 06:56:47.613Z332.264° NNW27.103°2025-06-20 06:59:47.613Z32.015° NE
|